Time[GMT],gps_lat[degrees_north](-3m),gps_lon[degrees_west](-3m),gps_2_lat[degrees_north](-3m),gps_2_lon[degrees_west](-3m)
2010-10-14 07:00,43.180583954,-70.427803040,43.19,-70.42
2010-10-14 08:00,43.180549622,-70.427803040,43.18,-70.43
2010-10-14 09:00,43.180549622,-70.427803040,43.18,-70.43
2010-10-14 10:00,43.180633545,-70.427650452,43.18,-70.43
2010-10-14 11:00,43.180450439,-70.427764893,43.18,-70.43
2010-10-14 12:00,43.180381775,-70.427696228,43.18,-70.43
2010-10-14 13:00,43.180400848,-70.427864075,43.18,-70.43
2010-10-14 14:00,43.180515289,-70.427932739,43.18,-70.43
2010-10-14 15:00,43.180583954,-70.427902222,43.18,-70.43
2010-10-14 16:00,43.180618286,-70.427902222,43.18,-70.43
2010-10-14 17:00,43.180633545,-70.427886963,43.18,-70.43
2010-10-14 18:00,43.180648804,-70.427886963,43.18,-70.43
2010-10-14 19:00,43.180683136,-70.427886963,43.18,-70.43
2010-10-14 20:00,43.180648804,-70.427848816,43.18,-70.43
2010-10-14 21:00,43.180618286,-70.427803040,43.18,-70.43
2010-10-14 22:00,43.180583954,-70.427848816,43.18,-70.43
2010-10-14 23:00,43.180564880,-70.427848816,43.18,-70.43
2010-10-15 00:00,43.180515289,-70.427932739,43.18,-70.43
2010-10-15 01:00,43.180564880,-70.427917480,43.18,-70.43
2010-10-15 02:00,43.180515289,-70.427963257,43.18,-70.43
2010-10-15 03:00,43.180500031,-70.428085327,43.18,-70.43
2010-10-15 04:00,43.180465698,-70.428115845,43.18,-70.43
2010-10-15 05:00,43.180500031,-70.428115845,43.18,-70.43
2010-10-15 06:00,43.180500031,-70.428146362,43.18,-70.43
2010-10-15 07:00,43.180381775,-70.428199768,43.18,-70.43
2010-10-15 08:00,43.180233002,-70.428169250,43.18,-70.43
2010-10-15 09:00,43.180133820,-70.428230286,43.18,-70.43
2010-10-15 10:00,43.180198669,-70.428298950,43.18,-70.43
2010-10-15 11:00,43.180217743,-70.428367615,43.18,-70.43
2010-10-15 12:00,43.180416107,-70.428550720,43.18,-70.43
2010-10-15 13:00,43.180416107,-70.428451538,43.18,-70.43
2010-10-15 14:00,43.180381775,-70.428550720,43.18,-70.43
2010-10-15 15:00,43.180564880,-70.428100586,43.18,-70.43
2010-10-15 16:00,43.180633545,-70.427581787,43.18,-70.43
2010-10-15 17:00,43.180648804,-70.427352905,43.18,-70.43
2010-10-15 18:00,43.180683136,-70.427268982,43.18,-70.43
2010-10-15 19:00,43.180633545,-70.427268982,43.18,-70.43
2010-10-15 20:00,43.180549622,-70.427169800,43.18,-70.43
2010-10-15 21:00,43.180633545,-70.427185059,43.18,-70.43
2010-10-15 22:00,43.180564880,-70.427131653,43.18,-70.43
2010-10-15 23:00,43.180515289,-70.427101135,43.18,-70.43
2010-10-16 00:00,43.180416107,-70.427101135,43.18,-70.43
2010-10-16 01:00,43.180416107,-70.427101135,43.18,-70.43
2010-10-16 02:00,43.180217743,-70.427146912,43.18,-70.43
2010-10-16 03:00,43.180084229,-70.427215576,43.18,-70.43
2010-10-16 04:00,43.180065155,-70.427268982,43.18,-70.43
2010-10-16 05:00,43.180015564,-70.427330017,43.18,-70.43
2010-10-16 06:00,43.180084229,-70.427314758,43.18,-70.43
2010-10-16 07:00,43.180034637,-70.427413940,43.18,-70.43
2010-10-16 08:00,43.180049896,-70.427413940,43.18,-70.43
2010-10-16 09:00,43.180049896,-70.427436829,43.18,-70.43
2010-10-16 10:00,43.180065155,-70.427398682,43.18,-70.43
2010-10-16 11:00,43.180084229,-70.427368164,43.18,-70.43
2010-10-16 12:00,43.180065155,-70.427314758,43.18,-70.43
2010-10-16 13:00,43.180099487,-70.427284241,43.18,-70.43
2010-10-16 14:00,43.180099487,-70.427253723,43.18,-70.43
2010-10-16 15:00,43.180099487,-70.427299500,43.18,-70.43
2010-10-16 16:00,43.180049896,-70.427284241,43.18,-70.43
2010-10-16 17:00,43.180015564,-70.427368164,43.18,-70.43
2010-10-16 18:00,43.180049896,-70.427413940,43.18,-70.43
2010-10-16 19:00,43.180049896,-70.427436829,43.18,-70.43
2010-10-16 20:00,43.180015564,-70.427452087,43.18,-70.43
2010-10-16 21:00,43.180084229,-70.427482605,43.18,-70.43
2010-10-16 22:00,43.180065155,-70.427452087,43.18,-70.43
2010-10-16 23:00,43.180034637,-70.427436829,43.18,-70.43
2010-10-17 00:00,43.180065155,-70.427467346,43.18,-70.43
2010-10-17 01:00,43.180099487,-70.427398682,43.18,-70.43
2010-10-17 02:00,43.180118561,-70.427368164,43.18,-70.43
2010-10-17 03:00,43.180133820,-70.427314758,43.18,-70.43
2010-10-17 04:00,43.180183411,-70.427299500,43.18,-70.43
2010-10-17 05:00,43.180183411,-70.427284241,43.18,-70.43
2010-10-17 06:00,43.180248260,-70.427284241,43.18,-70.43
2010-10-17 07:00,43.180198669,-70.427299500,43.18,-70.43
2010-10-17 08:00,43.180248260,-70.427314758,43.18,-70.43
2010-10-17 09:00,43.180248260,-70.427314758,43.18,-70.43
2010-10-17 10:00,43.180233002,-70.427352905,43.18,-70.43
2010-10-17 11:00,43.180267334,-70.427314758,43.18,-70.43
2010-10-17 12:00,43.180248260,-70.427299500,43.18,-70.43
2010-10-17 13:00,43.180248260,-70.427299500,43.18,-70.43
2010-10-17 14:00,43.180248260,-70.427314758,43.18,-70.43
2010-10-17 15:00,43.180217743,-70.427314758,43.18,-70.43
2010-10-17 16:00,43.180198669,-70.427299500,43.18,-70.43
2010-10-17 17:00,43.180217743,-70.427330017,43.18,-70.43
2010-10-17 18:00,43.180198669,-70.427352905,43.18,-70.43
2010-10-17 19:00,43.180233002,-70.427352905,43.18,-70.43
2010-10-17 20:00,43.180198669,-70.427352905,43.18,-70.43
2010-10-17 21:00,43.180217743,-70.427436829,43.18,-70.43
2010-10-17 22:00,43.180133820,-70.427368164,43.18,-70.43
2010-10-17 23:00,43.180183411,-70.427383423,43.18,-70.43
2010-10-18 00:00,43.180168152,-70.427330017,43.18,-70.43
2010-10-18 01:00,43.180233002,-70.427314758,43.18,-70.43
2010-10-18 02:00,43.180183411,-70.427299500,43.18,-70.43
2010-10-18 03:00,43.180198669,-70.427284241,43.18,-70.43
2010-10-18 04:00,43.180233002,-70.427314758,43.18,-70.43
2010-10-18 05:00,43.180233002,-70.427284241,43.18,-70.43
2010-10-18 06:00,43.180248260,-70.427284241,43.18,-70.43
2010-10-18 07:00,43.180301666,-70.427314758,43.18,-70.43
2010-10-18 08:00,43.180267334,-70.427299500,43.18,-70.43
2010-10-18 09:00,43.180248260,-70.427268982,43.18,-70.43
2010-10-18 10:00,43.180267334,-70.427268982,43.18,-70.43
2010-10-18 11:00,43.180267334,-70.427284241,43.18,-70.43
2010-10-18 12:00,43.180233002,-70.427299500,43.18,-70.43
2010-10-18 13:00,43.180233002,-70.427299500,43.18,-70.43
2010-10-18 14:00,43.180183411,-70.427268982,43.18,-70.43
2010-10-18 15:00,43.180198669,-70.427284241,43.18,-70.43
2010-10-18 16:00,43.180118561,-70.427253723,43.18,-70.43
2010-10-18 17:00,43.180118561,-70.427215576,43.18,-70.43
2010-10-18 18:00,43.180099487,-70.427368164,43.18,-70.43
2010-10-18 19:00,43.180099487,-70.427352905,43.18,-70.43
2010-10-18 20:00,43.180133820,-70.427314758,43.18,-70.43
2010-10-18 21:00,43.180118561,-70.427413940,43.18,-70.43
2010-10-18 22:00,43.180149078,-70.427497864,43.18,-70.43
2010-10-18 23:00,43.180198669,-70.427513123,43.18,-70.43
2010-10-19 00:00,43.180198669,-70.427467346,43.18,-70.43
2010-10-19 01:00,43.180248260,-70.427413940,43.18,-70.43
2010-10-19 02:00,43.180168152,-70.427383423,43.18,-70.43
2010-10-19 03:00,43.180183411,-70.427368164,43.18,-70.43
2010-10-19 04:00,43.180198669,-70.427299500,43.18,-70.43
2010-10-19 05:00,43.180217743,-70.427299500,43.18,-70.43
2010-10-19 06:00,43.180217743,-70.427314758,43.18,-70.43
2010-10-19 07:00,43.180217743,-70.427314758,43.18,-70.43
2010-10-19 08:00,43.180267334,-70.427330017,43.18,-70.43
2010-10-19 09:00,43.180267334,-70.427299500,43.18,-70.43
2010-10-19 10:00,43.180248260,-70.427299500,43.18,-70.43
2010-10-19 11:00,43.180316925,-70.427314758,43.18,-70.43
2010-10-19 12:00,43.180282593,-70.427314758,43.18,-70.43
2010-10-19 13:00,43.180248260,-70.427299500,43.18,-70.43
2010-10-19 14:00,43.180233002,-70.427314758,43.18,-70.43
2010-10-19 15:00,43.180233002,-70.427368164,43.18,-70.43
2010-10-19 16:00,43.180233002,-70.427314758,43.18,-70.43
2010-10-19 17:00,43.180217743,-70.427314758,43.18,-70.43
2010-10-19 18:00,43.180267334,-70.427398682,43.18,-70.43
2010-10-19 19:00,43.180301666,-70.427398682,43.18,-70.43
2010-10-19 20:00,43.180332184,-70.427436829,43.18,-70.43
2010-10-19 21:00,43.180316925,-70.427383423,43.18,-70.43
2010-10-19 22:00,43.180332184,-70.427368164,43.18,-70.43
2010-10-19 23:00,43.180366516,-70.427368164,43.18,-70.43
2010-10-20 00:00,43.180316925,-70.427383423,43.18,-70.43
2010-10-20 01:00,43.180316925,-70.427383423,43.18,-70.43
2010-10-20 02:00,43.180351257,-70.427352905,43.18,-70.43
2010-10-20 03:00,43.180351257,-70.427383423,43.18,-70.43
2010-10-20 04:00,43.180332184,-70.427368164,43.18,-70.43
2010-10-20 05:00,43.180351257,-70.427314758,43.18,-70.43
2010-10-20 06:00,43.180366516,-70.427330017,43.18,-70.43
2010-10-20 07:00,43.180351257,-70.427284241,43.18,-70.43
2010-10-20 08:00,43.180332184,-70.427352905,43.18,-70.43
2010-10-20 09:00,43.180332184,-70.427368164,43.18,-70.43
2010-10-20 10:00,43.180351257,-70.427398682,43.18,-70.43
2010-10-20 11:00,43.180381775,-70.427413940,43.18,-70.43
2010-10-20 12:00,43.180400848,-70.427452087,43.18,-70.43
2010-10-20 13:00,43.180381775,-70.427436829,43.18,-70.43
2010-10-20 14:00,43.180381775,-70.427436829,43.18,-70.43
2010-10-20 15:00,43.180366516,-70.427413940,43.18,-70.43
2010-10-20 16:00,43.180351257,-70.427413940,43.18,-70.43
2010-10-20 17:00,43.180366516,-70.427398682,43.18,-70.43
2010-10-20 18:00,43.180366516,-70.427413940,43.18,-70.43
2010-10-20 19:00,43.180366516,-70.427436829,43.18,-70.43
2010-10-20 20:00,43.180381775,-70.427497864,43.18,-70.43
2010-10-20 21:00,43.180416107,-70.427497864,43.18,-70.43
2010-10-20 22:00,43.180450439,-70.427536011,43.18,-70.43
2010-10-20 23:00,43.180500031,-70.427566528,43.18,-70.43
2010-10-21 00:00,43.180599213,-70.427619934,43.18,-70.43
2010-10-21 01:00,43.180648804,-70.427536011,43.18,-70.43
2010-10-21 02:00,43.180599213,-70.427513123,43.18,-70.43
2010-10-21 03:00,43.180618286,-70.427413940,43.18,-70.43
2010-10-21 04:00,43.180549622,-70.427330017,43.18,-70.43
2010-10-21 05:00,43.180549622,-70.427284241,43.18,-70.43
2010-10-21 06:00,43.180465698,-70.427299500,43.18,-70.43
2010-10-21 07:00,43.180500031,-70.427299500,43.18,-70.43
2010-10-21 08:00,43.180484772,-70.427330017,43.18,-70.43
2010-10-21 09:00,43.180484772,-70.427650452,43.18,-70.43
2010-10-21 10:00,43.180549622,-70.427436829,43.18,-70.43
2010-10-21 11:00,43.180618286,-70.427497864,43.18,-70.43
2010-10-21 12:00,43.180618286,-70.427536011,43.18,-70.43
2010-10-21 13:00,43.180633545,-70.427551270,43.18,-70.43
2010-10-21 14:00,43.180618286,-70.427551270,43.18,-70.43
2010-10-21 15:00,43.180633545,-70.427513123,43.18,-70.43
2010-10-21 16:00,43.180618286,-70.427467346,43.18,-70.43
2010-10-21 17:00,43.180667877,-70.427436829,43.18,-70.43
2010-10-21 18:00,43.180633545,-70.427368164,43.18,-70.43
2010-10-21 19:00,43.180583954,-70.427330017,43.18,-70.43
2010-10-21 20:00,43.180599213,-70.427330017,43.18,-70.43
2010-10-21 21:00,43.180515289,-70.427215576,43.18,-70.43
2010-10-21 22:00,43.180400848,-70.427116394,43.18,-70.43
2010-10-21 23:00,43.180316925,-70.427146912,43.18,-70.43
2010-10-22 00:00,43.180316925,-70.427230835,43.18,-70.43
2010-10-22 01:00,43.180381775,-70.427268982,43.18,-70.43
2010-10-22 02:00,43.180332184,-70.427200317,43.18,-70.43
2010-10-22 03:00,43.180301666,-70.427230835,43.18,-70.43
2010-10-22 04:00,43.180316925,-70.427169800,43.18,-70.43
2010-10-22 05:00,43.180301666,-70.427169800,43.18,-70.43
2010-10-22 06:00,43.180301666,-70.427185059,43.18,-70.43
2010-10-22 07:00,43.180351257,-70.427169800,43.18,-70.43
2010-10-22 08:00,43.180400848,-70.427215576,43.18,-70.43
2010-10-22 09:00,43.180400848,-70.427185059,43.18,-70.43
2010-10-22 10:00,43.180500031,-70.427146912,43.18,-70.43
2010-10-22 11:00,43.180484772,-70.427146912,43.18,-70.43
2010-10-22 12:00,43.180500031,-70.427185059,43.18,-70.43
2010-10-22 13:00,43.180465698,-70.427169800,43.18,-70.43
2010-10-22 14:00,43.180416107,-70.427169800,43.18,-70.43
2010-10-22 15:00,43.180351257,-70.427215576,43.18,-70.43
2010-10-22 16:00,43.180316925,-70.427169800,43.18,-70.43
2010-10-22 17:00,43.180282593,-70.427131653,43.18,-70.43
2010-10-22 18:00,43.180316925,-70.427146912,43.18,-70.43
2010-10-22 19:00,43.180217743,-70.427200317,43.18,-70.43
2010-10-22 20:00,43.180149078,-70.427131653,43.18,-70.43
2010-10-22 21:00,43.180233002,-70.427131653,43.18,-70.43
2010-10-22 22:00,43.180217743,-70.427185059,43.18,-70.43
2010-10-22 23:00,43.180217743,-70.427169800,43.18,-70.43
2010-10-23 00:00,43.180332184,-70.427253723,43.18,-70.43
2010-10-23 01:00,43.180435181,-70.427253723,43.18,-70.43
2010-10-23 02:00,43.180435181,-70.427314758,43.18,-70.43
2010-10-23 03:00,43.180484772,-70.427314758,43.18,-70.43
2010-10-23 04:00,43.180450439,-70.427200317,43.18,-70.43
2010-10-23 05:00,43.180301666,-70.427116394,43.18,-70.43
2010-10-23 06:00,43.180316925,-70.427131653,43.18,-70.43
2010-10-23 07:00,43.180301666,-70.427116394,43.18,-70.43
2010-10-23 08:00,43.180282593,-70.427116394,43.18,-70.43
2010-10-23 09:00,43.180351257,-70.427085876,43.18,-70.43
2010-10-23 10:00,43.180316925,-70.427062988,43.18,-70.43
2010-10-23 11:00,43.180366516,-70.427131653,43.18,-70.43
2010-10-23 12:00,43.180381775,-70.427169800,43.18,-70.43
2010-10-23 13:00,43.180381775,-70.427253723,43.18,-70.43
2010-10-23 14:00,43.180351257,-70.427253723,43.18,-70.43
2010-10-23 15:00,43.180248260,-70.427185059,43.18,-70.43
2010-10-23 16:00,43.180267334,-70.427200317,43.18,-70.43
2010-10-23 17:00,43.180217743,-70.427253723,43.18,-70.43
2010-10-23 18:00,43.180233002,-70.427215576,43.18,-70.43
2010-10-23 19:00,43.180233002,-70.427185059,43.18,-70.43
2010-10-23 20:00,43.180217743,-70.427200317,43.18,-70.43
2010-10-23 21:00,43.180248260,-70.427200317,43.18,-70.43
2010-10-23 22:00,43.180233002,-70.427230835,43.18,-70.43
2010-10-23 23:00,43.180217743,-70.427253723,43.18,-70.43
2010-10-24 00:00,43.180217743,-70.427299500,43.18,-70.43
2010-10-24 01:00,43.180316925,-70.427299500,43.18,-70.43
2010-10-24 02:00,43.180316925,-70.427314758,43.18,-70.43
2010-10-24 03:00,43.180332184,-70.427436829,43.18,-70.43
2010-10-24 04:00,43.180316925,-70.427352905,43.18,-70.43
2010-10-24 05:00,43.180301666,-70.427299500,43.18,-70.43
2010-10-24 06:00,43.180267334,-70.427352905,43.18,-70.43
2010-10-24 07:00,43.180301666,-70.427368164,43.18,-70.43
2010-10-24 08:00,43.180282593,-70.427383423,43.18,-70.43
2010-10-24 09:00,43.180301666,-70.427383423,43.18,-70.43
2010-10-24 10:00,43.180282593,-70.427383423,43.18,-70.43
2010-10-24 11:00,43.180282593,-70.427398682,43.18,-70.43
2010-10-24 12:00,43.180332184,-70.427497864,43.18,-70.43
2010-10-24 13:00,43.180381775,-70.427551270,43.18,-70.43
2010-10-24 14:00,43.180416107,-70.427551270,43.18,-70.43
2010-10-24 15:00,43.180416107,-70.427482605,43.18,-70.43
2010-10-24 16:00,43.180381775,-70.427452087,43.18,-70.43
2010-10-24 17:00,43.180381775,-70.427467346,43.18,-70.43
2010-10-24 18:00,43.180366516,-70.427383423,43.18,-70.43
2010-10-24 19:00,43.180400848,-70.427383423,43.18,-70.43
2010-10-24 20:00,43.180366516,-70.427352905,43.18,-70.43
2010-10-24 21:00,43.180400848,-70.427330017,43.18,-70.43
2010-10-24 22:00,43.180366516,-70.427368164,43.18,-70.43
2010-10-24 23:00,43.180351257,-70.427383423,43.18,-70.43
2010-10-25 00:00,43.180332184,-70.427413940,43.18,-70.43
2010-10-25 01:00,43.180332184,-70.427482605,43.18,-70.43
2010-10-25 02:00,43.180351257,-70.427597046,43.18,-70.43
2010-10-25 03:00,43.180366516,-70.427635193,43.18,-70.43
2010-10-25 04:00,43.180366516,-70.427566528,43.18,-70.43
2010-10-25 05:00,43.180400848,-70.427513123,43.18,-70.43
2010-10-25 06:00,43.180366516,-70.427482605,43.18,-70.43
2010-10-25 07:00,43.180450439,-70.427497864,43.18,-70.43
2010-10-25 08:00,43.180366516,-70.427482605,43.18,-70.43
2010-10-25 09:00,43.180450439,-70.427467346,43.18,-70.43
2010-10-25 10:00,43.180400848,-70.427467346,43.18,-70.43
2010-10-25 11:00,43.180400848,-70.427467346,43.18,-70.43
2010-10-25 12:00,43.180332184,-70.427413940,43.18,-70.43
2010-10-25 13:00,43.180316925,-70.427467346,43.18,-70.43
2010-10-25 14:00,43.180301666,-70.427551270,43.18,-70.43
2010-10-25 15:00,43.180316925,-70.427551270,43.18,-70.43
2010-10-25 16:00,43.180301666,-70.427551270,43.18,-70.43
2010-10-25 17:00,43.180301666,-70.427551270,43.18,-70.43
2010-10-25 18:00,43.180301666,-70.427566528,43.18,-70.43
2010-10-25 19:00,43.180301666,-70.427497864,43.18,-70.43
2010-10-25 20:00,43.180233002,-70.427436829,43.18,-70.43
2010-10-25 21:00,43.180316925,-70.427482605,43.18,-70.43
2010-10-25 22:00,43.180316925,-70.427452087,43.18,-70.43
2010-10-25 23:00,43.180332184,-70.427482605,43.18,-70.43
2010-10-26 00:00,43.180366516,-70.427536011,43.18,-70.43
2010-10-26 01:00,43.180351257,-70.427497864,43.18,-70.43
2010-10-26 02:00,43.180351257,-70.427551270,43.18,-70.43
2010-10-26 03:00,43.180400848,-70.427566528,43.18,-70.43
2010-10-26 04:00,43.180366516,-70.427482605,43.18,-70.43
2010-10-26 05:00,43.180351257,-70.427467346,43.18,-70.43
2010-10-26 06:00,43.180400848,-70.427398682,43.18,-70.43
2010-10-26 07:00,43.180351257,-70.427299500,43.18,-70.43
2010-10-26 08:00,43.180282593,-70.427284241,43.18,-70.43
2010-10-26 09:00,43.180282593,-70.427284241,43.18,-70.43
2010-10-26 10:00,43.180301666,-70.427299500,43.18,-70.43
2010-10-26 11:00,43.180267334,-70.427299500,43.18,-70.43
2010-10-26 12:00,43.180282593,-70.427314758,43.18,-70.43
2010-10-26 13:00,43.180332184,-70.427368164,43.18,-70.43
2010-10-26 14:00,43.180316925,-70.427383423,43.18,-70.43
2010-10-26 15:00,43.180351257,-70.427467346,43.18,-70.43
2010-10-26 16:00,43.180351257,-70.427467346,43.18,-70.43
2010-10-26 17:00,43.180366516,-70.427467346,,
2010-10-26 18:00,43.180484772,-70.427413940,43.18,-70.43
2010-10-26 19:00,43.180465698,-70.427452087,43.18,-70.43
2010-10-26 20:00,43.180450439,-70.427352905,43.18,-70.43
2010-10-26 21:00,43.180465698,-70.427299500,43.18,-70.43
2010-10-26 22:00,43.180400848,-70.427368164,43.18,-70.43
2010-10-26 23:00,43.180400848,-70.427413940,43.18,-70.43
2010-10-27 00:00,43.180400848,-70.427513123,43.18,-70.43
2010-10-27 01:00,43.180450439,-70.427398682,43.18,-70.43
2010-10-27 02:00,43.180416107,-70.427413940,43.18,-70.43
2010-10-27 03:00,43.180465698,-70.427436829,43.18,-70.43
2010-10-27 04:00,43.180465698,-70.427413940,43.18,-70.43
2010-10-27 05:00,43.180515289,-70.427482605,43.18,-70.43
2010-10-27 06:00,43.180549622,-70.427513123,43.18,-70.43
2010-10-27 07:00,43.180583954,-70.427497864,43.18,-70.43
2010-10-27 08:00,43.180564880,-70.427383423,43.18,-70.43
2010-10-27 09:00,43.180599213,-70.427330017,43.18,-70.43
2010-10-27 10:00,43.180599213,-70.427352905,43.18,-70.43
2010-10-27 11:00,43.180583954,-70.427383423,43.18,-70.43
2010-10-27 12:00,43.180599213,-70.427452087,43.18,-70.43
2010-10-27 13:00,43.180667877,-70.427536011,43.18,-70.43
2010-10-27 14:00,43.180667877,-70.427566528,43.18,-70.43
2010-10-27 15:00,43.180648804,-70.427581787,43.18,-70.43
2010-10-27 16:00,43.180667877,-70.427597046,43.18,-70.43
2010-10-27 17:00,43.180633545,-70.427566528,43.18,-70.43
2010-10-27 18:00,43.180618286,-70.427497864,43.18,-70.43
2010-10-27 19:00,43.180683136,-70.427581787,43.18,-70.43
2010-10-27 20:00,43.180667877,-70.427513123,43.18,-70.43
2010-10-27 21:00,43.180648804,-70.427413940,43.18,-70.43
2010-10-27 22:00,43.180583954,-70.427368164,43.18,-70.43
2010-10-27 23:00,43.180599213,-70.427368164,43.18,-70.43
2010-10-28 00:00,43.180599213,-70.427352905,43.18,-70.43
2010-10-28 01:00,43.180534363,-70.427253723,43.18,-70.43
2010-10-28 02:00,43.180549622,-70.427314758,43.18,-70.43
2010-10-28 03:00,43.180564880,-70.427368164,43.18,-70.43
2010-10-28 04:00,43.180564880,-70.427482605,43.18,-70.43
2010-10-28 05:00,43.180683136,-70.427551270,43.18,-70.43
2010-10-28 06:00,43.180549622,-70.427513123,43.18,-70.43
2010-10-28 07:00,43.180549622,-70.427513123,43.18,-70.43
2010-10-28 08:00,43.180564880,-70.427467346,43.18,-70.43
2010-10-28 09:00,43.180564880,-70.427436829,43.18,-70.43
2010-10-28 10:00,43.180515289,-70.427368164,43.18,-70.43
2010-10-28 11:00,43.180534363,-70.427368164,43.18,-70.43
2010-10-28 12:00,43.180583954,-70.427413940,43.18,-70.43
2010-10-28 13:00,43.180564880,-70.427413940,43.18,-70.43
2010-10-28 14:00,43.180564880,-70.427383423,43.18,-70.43
2010-10-28 15:00,43.180599213,-70.427452087,43.18,-70.43
2010-10-28 16:00,43.180564880,-70.427482605,43.18,-70.43
2010-10-28 17:00,43.180599213,-70.427482605,43.18,-70.43
2010-10-28 18:00,43.180534363,-70.427398682,43.18,-70.43
2010-10-28 19:00,43.180599213,-70.427413940,43.18,-70.43
2010-10-28 20:00,43.180549622,-70.427314758,43.18,-70.43
2010-10-28 21:00,43.180500031,-70.427284241,43.18,-70.43
2010-10-28 22:00,43.180435181,-70.427284241,43.18,-70.43
2010-10-28 23:00,43.180435181,-70.427299500,43.18,-70.43
2010-10-29 00:00,43.180381775,-70.427284241,43.18,-70.43
2010-10-29 01:00,43.180416107,-70.427314758,43.18,-70.43
2010-10-29 02:00,43.180400848,-70.427284241,43.18,-70.43
2010-10-29 03:00,43.180416107,-70.427299500,43.18,-70.43
2010-10-29 04:00,43.180435181,-70.427314758,43.18,-70.43
2010-10-29 05:00,43.180450439,-70.427352905,43.18,-70.43
2010-10-29 06:00,43.180515289,-70.427330017,43.18,-70.43
2010-10-29 07:00,43.180500031,-70.427368164,43.18,-70.43
2010-10-29 08:00,43.180465698,-70.427314758,43.18,-70.43
2010-10-29 09:00,43.180416107,-70.427215576,43.18,-70.43
2010-10-29 10:00,43.180465698,-70.427230835,43.18,-70.43
2010-10-29 11:00,43.180366516,-70.427200317,43.18,-70.43
2010-10-29 12:00,43.180316925,-70.427230835,43.18,-70.43
2010-10-29 13:00,43.180301666,-70.427230835,43.18,-70.43
2010-10-29 14:00,43.180301666,-70.427284241,43.18,-70.43
2010-10-29 15:00,43.180301666,-70.427352905,43.18,-70.43
2010-10-29 16:00,43.180316925,-70.427314758,43.18,-70.43
2010-10-29 17:00,43.180381775,-70.427513123,43.18,-70.43
2010-10-29 18:00,43.180450439,-70.427513123,43.18,-70.43
2010-10-29 19:00,43.180465698,-70.427413940,43.18,-70.43
2010-10-29 20:00,43.180484772,-70.427253723,43.18,-70.43
2010-10-29 21:00,43.180435181,-70.427185059,43.18,-70.43
2010-10-29 22:00,43.180332184,-70.427200317,43.18,-70.43
2010-10-29 23:00,43.180316925,-70.427185059,43.18,-70.43
2010-10-30 00:00,43.180316925,-70.427169800,43.18,-70.43
2010-10-30 01:00,43.180301666,-70.427116394,43.18,-70.43
2010-10-30 02:00,43.180233002,-70.427085876,43.18,-70.43
2010-10-30 03:00,43.180168152,-70.427131653,43.18,-70.43
2010-10-30 04:00,43.180168152,-70.427101135,43.18,-70.43
2010-10-30 05:00,43.180233002,-70.427169800,43.18,-70.43
2010-10-30 06:00,43.180198669,-70.427352905,43.18,-70.43
2010-10-30 07:00,43.180217743,-70.427284241,43.18,-70.43
2010-10-30 08:00,43.180248260,-70.427268982,43.18,-70.43
2010-10-30 09:00,43.180316925,-70.427230835,43.18,-70.43
2010-10-30 10:00,43.180351257,-70.427215576,43.18,-70.43
2010-10-30 11:00,43.180381775,-70.427131653,43.18,-70.43
2010-10-30 12:00,43.180416107,-70.427169800,43.18,-70.43
2010-10-30 13:00,43.180465698,-70.427169800,43.18,-70.43
2010-10-30 14:00,43.180450439,-70.427131653,43.18,-70.43
2010-10-30 15:00,43.180450439,-70.427169800,43.18,-70.43
2010-10-30 16:00,43.180465698,-70.427185059,43.18,-70.43
2010-10-30 17:00,43.180500031,-70.427253723,43.18,-70.43
2010-10-30 18:00,43.180465698,-70.427268982,43.18,-70.43
2010-10-30 19:00,43.180450439,-70.427253723,43.18,-70.43
2010-10-30 20:00,43.180484772,-70.427268982,43.18,-70.43
2010-10-30 21:00,43.180450439,-70.427299500,43.18,-70.43
2010-10-30 22:00,43.180400848,-70.427169800,43.18,-70.43
2010-10-30 23:00,43.180400848,-70.427253723,43.18,-70.43
2010-10-31 00:00,43.180416107,-70.427253723,43.18,-70.43
2010-10-31 01:00,43.180435181,-70.427268982,43.18,-70.43
2010-10-31 02:00,43.180450439,-70.427215576,,
2010-10-31 03:00,43.180549622,-70.427268982,43.18,-70.43
2010-10-31 04:00,43.180549622,-70.427253723,43.18,-70.43
2010-10-31 05:00,43.180549622,-70.427268982,43.18,-70.43
2010-10-31 06:00,43.180534363,-70.427314758,43.18,-70.43
2010-10-31 07:00,43.180515289,-70.427368164,43.18,-70.43
2010-10-31 08:00,43.180583954,-70.427398682,43.18,-70.43
2010-10-31 09:00,43.180564880,-70.427352905,43.18,-70.43
2010-10-31 10:00,43.180583954,-70.427330017,43.18,-70.43